Dewpoint
67 68 68 70 71 71 72 73 73 72 72 72 72 72 71 71 70 70 70 69 69 68 68 67 68 65 66 66 67 67 67 68 68 68 68 68 68 68 69 70 69 70 69 69 68 69 69 69 70 70 71 71 71 70 67 66 65 61 63 64 67 69
67 67 66 69 71 71 72 72 71 72 71 71 72 72 71 70 71 68 67 68 68 67 66 66 66 67 65 65 65 68 67 68 68 68 68 68 69 69 69 69 69 69 69 69 69 68 67 68 70 71 71 71 69 67 66 65 63 63 63 65 68 70
66 68 67 68 69 70 71 71 71 71 71 71 71 70 70 68 66 64 64 66 68 69 66 67 67 64 64 66 67 68 68 68 68 69 69 69 68 68 68 68 68 68 68 70 67 66 62 61 64 69 71 68 66 64 63 66 63 65 64 66 69 71
67 66 65 68 69 69 70 70 70 70 71 71 71 70 68 66 66 65 64 68 69 68 68 68 64 65 68 65 68 68 68 68 69 69 69 69 69 69 69 69 69 69 69 66 63 61 59 58 60 62 64 64 64 63 64 64 64 66 66 68 69 71
67 67 66 66 68 69 69 69 69 69 70 70 70 70 68 67 68 66 66 68 65 69 66 66 69 69 66 65 67 66 67 68 67 67 68 67 66 63 67 64 64 66 64 62 59 58 58 57 61 61 63 63 63 62 63 66 68 67 67 69 70 70
67 66 67 66 66 68 69 68 69 68 70 69 70 69 68 68 68 68 66 63 65 67 63 61 65 65 64 63 61 62 64 65 64 63 64 64 63 60 60 59 56 57 60 60 59 59 59 66 61 62 62 63 65 66 63 65 67 68 67 68 69 70
68 68 67 67 67 68 68 68 69 69 69 69 69 68 67 68 68 70 67 68 65 68 67 64 65 66 65 60 59 61 60 61 62 61 62 60 61 60 57 57 60 58 59 59 60 56 61 62 65 62 63 62 63 61 65 66 68 68 68 68 69 69
68 67 65 67 68 67 68 68 70 70 69 69 69 68 68 68 69 68 68 70 68 69 68 68 66 67 66 59 59 59 58 59 60 60 61 60 61 62 59 60 63 60 58 64 58 64 63 66 67 66 61 63 66 64 66 67 67 68 67 67 67 68
67 67 66 67 67 65 66 68 69 70 70 70 69 68 68 69 68 67 70 69 69 72 71 71 68 66 68 65 63 61 60 61 64 64 61 64 63 64 67 68 68 64 66 64 65 65 62 61 65 69 65 64 62 63 65 67 66 67 67 66 66 67
66 66 66 67 67 65 66 67 70 70 71 70 69 69 70 68 69 67 70 70 70 72 73 71 71 70 69 69 71 69 69 67 66 67 66 67 68 68 67 68 70 66 69 64 63 64 63 64 60 64 64 62 64 62 65 67 66 67 66 66 66 66
65 67 64 64 66 67 67 67 68 69 70 69 69 69 68 69 69 69 69 71 70 71 73 72 72 69 68 69 67 67 68 70 69 69 69 68 69 68 68 69 68 68 68 67 63 65 63 65 61 59 62 63 63 62 65 67 69 66 66 65 64 64
65 67 69 67 67 68 67 67 68 69 69 68 69 68 67 68 68 68 69 71 72 73 73 72 73 68 69 69 68 69 69 69 69 69 69 69 69 69 68 68 68 67 69 67 67 65 68 64 60 60 59 63 66 63 65 66 66 67 66 65 64 62
65 66 68 66 66 67 68 66 67 68 68 68 69 69 68 67 70 70 71 71 72 72 73 71 69 68 68 70 70 69 68 69 70 70 70 70 69 69 69 67 66 67 68 71 67 69 58 65 61 62 62 62 63 61 61 61 61 62 64 66 64 61
65 66 68 67 68 67 68 68 68 69 69 69 69 68 69 70 71 70 72 73 72 70 71 68 68 69 69 70 69 69 68 69 69 69 69 69 68 69 68 67 66 67 67 65 65 65 66 60 60 62 64 64 62 63 62 60 60 61 60 59 60 60
66 66 68 68 68 68 70 67 68 68 69 69 69 69 70 70 71 70 69 72 71 71 68 68 68 69 69 69 69 69 69 69 69 69 69 69 67 68 68 67 68 65 65 65 63 62 60 62 62 62 63 64 62 61 60 59 59 58 58 59 58 59
67 67 68 69 69 69 70 69 69 68 70 70 68 69 70 70 69 69 72 70 69 68 67 68 68 69 70 69 68 69 69 69 68 69 68 69 68 68 68 67 66 65 65 61 61 61 61 62 64 64 64 64 64 62 60 60 59 57 56 55 56 56
67 68 68 69 69 70 71 70 70 69 70 71 69 69 69 71 70 70 69 69 69 69 67 68 68 69 69 69 69 68 69 68 69 68 68 68 68 68 68 65 65 66 66 65 60 57 62 63 64 64 63 63 61 60 59 58 56 53 53 51 53 54
67 68 69 68 69 69 70 69 69 68 70 69 69 69 70 70 69 70 70 69 69 70 68 68 68 69 69 69 69 68 68 69 69 69 69 69 67 68 68 67 64 66 65 65 63 63 61 61 63 63 62 62 62 60 58 58 54 54 49 48 51 52
66 68 69 69 69 69 70 69 70 69 69 70 70 70 71 69 70 71 70 69 68 69 69 69 69 69 69 69 69 68 68 69 69 69 69 68 68 67 66 65 65 64 67 63 64 63 64 63 63 62 61 62 60 58 57 55 53 49 49 50 50 51
67 68 68 69 68 67 67 66 67 68 68 68 68 68 70 71 71 69 69 69 69 70 69 69 68 69 69 69 69 69 69 69 69 69 68 67 67 66 65 65 65 63 62 63 61 62 62 64 62 61 61 61 59 56 55 54 52 50 50 50 51 50
67 67 67 66 66 65 65 66 68 67 67 69 67 69 69 71 69 69 69 68 68 70 70 69 69 69 69 69 69 69 68 68 69 68 67 67 67 67 66 66 67 67 64 62 60 62 64 64 62 61 61 59 58 56 54 52 51 51 50 50 50 49
66 66 67 67 66 67 68 67 67 67 67 67 67 67 68 68 70 70 69 68 69 68 69 69 69 69 69 69 68 68 68 68 68 68 67 67 66 65 65 66 64 68 61 61 60 61 62 61 61 59 58 58 56 54 54 52 52 52 52 51 52 53
66 66 67 67 67 68 69 69 69 68 67 66 68 68 68 68 70 69 69 68 69 69 68 69 68 68 67 68 67 68 68 69 68 68 68 66 65 63 64 64 65 63 62 59 59 58 59 58 58 63 60 57 54 53 54 53 51 50 50 52 53 52
66 66 67 67 68 68 68 69 69 69 70 69 68 68 70 69 68 68 68 68 69 69 67 67 67 66 67 68 67 68 68 67 65 66 65 66 63 62 63 63 63 65 62 62 55 56 57 55 55 57 58 58 56 54 50 51 51 51 52 51 51 51
66 66 66 68 68 68 68 68 69 69 68 69 69 68 68 67 66 66 66 67 68 67 67 66 67 67 65 67 66 67 65 65 65 64 64 62 61 61 63 63 63 63 62 62 54 55 53 55 54 55 56 57 57 56 55 50 48 50 51 49 50 51
66 67 66 67 67 68 68 67 67 65 64 65 65 66 65 65 65 65 66 67 67 66 66 66 65 65 64 65 65 65 65 62 64 64 63 63 61 63 59 60 60 60 61 61 57 53 53 54 55 53 54 55 54 54 53 49 46 45 49 50 50 46
67 67 67 67 68 68 67 67 67 65 65 65 65 66 68 68 66 66 66 66 66 66 65 66 65 64 64 64 64 64 64 62 61 62 62 61 60 59 57 57 58 57 56 56 60 57 53 51 53 53 53 53 54 54 54 51 52 43 44 48 47 46
67 67 68 68 66 66 66 67 67 66 66 66 66 65 66 67 66 65 65 65 65 65 64 64 64 62 62 62 62 62 63 62 60 59 59 59 59 58 57 56 57 57 56 56 56 55 52 53 50 50 54 53 52 52 52 52 51 50 50 43 45 47
68 69 69 68 66 66 67 67 66 66 67 66 66 65 65 65 64 65 65 65 64 63 63 63 62 62 61 61 61 62 62 59 59 57 56 56 56 55 55 55 55 55 55 55 55 55 53 52 52 52 54 52 52 49 48 49 49 49 43 45 44 45
68 67 68 68 67 68 67 67 66 67 66 66 65 65 64 64 64 64 64 63 63 62 62 62 61 60 60 59 59 59 57 56 56 55 54 53 53 54 54 53 54 54 54 53 54 53 52 52 51 51 51 51 49 50 48 47 47 46 48 47 42 36
67 67 67 67 67 67 67 67 66 67 66 65 64 64 63 63 63 63 62 62 62 62 62 61 61 61 60 58 59 58 57 56 57 57 54 53 52 50 52 53 53 53 53 53 53 52 51 51 51 50 48 48 48 48 48 47 46 47 47 46 46 45
66 66 66 67 67 67 66 66 67 67 66 65 64 63 63 62 62 61 61 61 61 61 61 61 61 61 60 58 58 57 57 56 55 55 54 52 51 52 52 53 54 54 54 54 53 53 52 50 50 49 49 49 48 48 48 47 48 48 47 47 46 44
65 66 66 66 67 67 66 66 66 66 66 65 64 64 63 62 62 61 60 60 60 60 60 60 60 59 59 58 58 57 57 57 56 55 53 51 52 52 52 52 52 52 52 51 52 51 51 51 50 49 48 48 47 47 47 48 48 47 46 47 45 42
65 65 66 66 66 66 66 66 66 66 66 65 64 64 63 62 63 62 61 61 61 60 60 60 59 59 58 58 58 57 57 55 53 52 51 51 51 51 51 50 51 51 51 52 52 51 50 50 50 49 49 47 47 47 47 48 47 47 45 44 42 41
65 65 66 66 66 66 66 66 66 66 65 65 65 63 63 63 64 63 63 62 62 62 61 60 60 59 59 59 56 55 55 53 52 51 51 51 51 51 51 49 50 52 52 52 51 51 50 49 48 48 48 48 48 47 48 47 47 47 45 45 43 43
65 65 65 65 65 66 66 66 66 65 65 65 64 64 63 63 63 62 61 61 61 61 61 62 60 59 57 56 55 54 53 52 50 49 50 50 50 50 50 49 48 48 47 50 50 49 50 50 49 49 48 48 46 46 47 48 47 47 47 46 46 44
64 65 65 65 65 66 66 65 65 65 65 65 64 63 63 62 62 62 62 62 61 61 61 61 59 57 57 55 55 53 51 51 51 50 50 49 49 49 50 50 49 49 49 49 48 47 48 48 48 48 47 48 47 47 47 48 47 47 47 48 46 45